Temperature
23 22 22 21 20 19 21 22 23 23 23 23 24 23 22 21 21 21 22 21 21 20 20 20 19 19 19 19 19 19 19 19 19 19 19 18 18 18 18 18 18 18 18 18 18 18 18 18 18
23 23 22 21 19 20 21 22 23 23 23 24 24 23 22 21 21 22 22 21 21 20 20 20 19 19 19 19 19 19 19 19 19 18 18 18 18 18 18 18 18 18 18 18 18 18 18 18 18
23 22 22 19 20 21 23 23 23 23 24 24 23 23 22 22 22 22 22 21 21 20 20 20 19 19 19 19 19 19 19 19 19 18 18 18 18 18 18 18 18 18 18 18 18 18 18 18 18
23 22 22 19 22 22 22 23 23 23 24 24 23 22 22 22 22 22 22 21 21 20 20 20 19 19 19 19 19 19 19 19 18 18 18 18 18 18 18 18 18 18 18 18 18 18 18 18 18
23 22 20 20 22 22 23 24 24 23 23 23 23 21 21 21 22 22 22 21 21 20 20 20 19 19 19 19 19 19 19 19 18 18 18 18 18 18 18 18 18 18 18 18 18 18 18 17 18
23 20 19 21 22 23 23 24 24 23 23 23 22 21 21 21 22 22 21 21 21 20 20 20 19 19 19 19 19 19 19 18 18 18 18 18 18 18 18 17 17 17 17 17 18 18 18 17 18
22 19 20 22 22 23 24 25 24 23 23 23 23 21 21 21 22 22 21 21 20 20 20 20 19 19 19 19 19 19 19 18 18 18 18 18 18 18 18 18 17 17 17 17 17 17 17 17 17
24 19 21 21 22 23 24 25 25 24 23 24 23 21 21 21 21 21 21 20 20 20 20 20 19 19 19 19 19 19 19 19 18 18 18 18 18 18 18 17 17 17 17 17 17 17 17 17 17
23 19 20 22 23 24 24 24 25 25 24 23 23 23 23 22 21 21 20 20 20 20 20 20 20 19 19 19 19 19 19 19 18 18 18 18 18 18 18 17 17 17 17 17 17 17 17 17 17
22 19 22 23 23 24 24 24 24 24 23 22 22 23 22 22 21 21 21 20 20 20 20 20 20 19 19 19 19 19 19 18 18 18 18 18 18 18 18 17 17 17 17 17 17 17 17 17 17
22 21 22 23 25 25 24 24 24 23 22 23 23 22 22 21 21 21 21 21 21 20 20 20 20 20 19 19 19 19 19 18 18 18 18 18 18 18 18 18 17 17 17 17 17 17 17 17 17
22 22 23 24 25 25 24 24 24 23 24 25 24 23 22 21 21 21 21 21 21 20 20 20 20 20 19 19 19 19 19 19 18 18 18 18 18 18 18 17 17 17 17 17 17 17 17 17 17
22 23 24 25 25 25 24 24 23 23 24 24 23 22 22 21 21 21 21 21 21 20 20 20 20 20 19 19 19 19 19 19 18 18 18 18 18 18 17 17 17 17 17 17 17 17 17 17 17
23 23 23 24 24 24 23 23 23 23 23 23 22 21 21 21 21 21 21 21 21 21 20 20 20 20 19 19 19 19 19 18 18 18 18 18 18 18 17 17 17 17 17 17 17 17 17 17 17
23 22 22 23 24 24 23 22 22 22 22 21 21 21 21 21 21 21 21 21 21 20 20 20 20 19 19 19 19 19 19 18 18 18 18 18 18 17 17 17 17 17 17 17 17 17 17 17 17
22 22 22 23 23 23 23 22 22 22 22 21 20 20 20 20 21 21 21 21 20 20 20 20 19 19 19 19 19 19 18 18 18 18 18 18 17 17 17 17 17 17 17 17 17 17 17 17 17
20 21 22 22 23 22 22 22 21 22 21 20 20 20 20 20 20 21 21 21 20 20 20 20 19 19 19 19 19 18 18 18 18 18 17 17 17 17 17 17 17 17 17 17 17 17 17 17 17
21 21 22 22 22 22 21 21 20 21 21 20 20 20 20 20 20 21 21 20 20 20 20 20 19 19 19 19 18 18 18 18 18 17 17 17 17 17 17 17 17 17 17 17 17 17 17 17 17
22 22 21 21 22 22 21 20 20 20 20 20 20 20 20 20 20 20 20 20 20 20 19 19 19 19 19 19 18 18 18 18 17 17 17 17 17 17 17 17 17 17 17 17 17 17 17 17 16
21 21 21 21 22 22 20 20 20 20 20 20 20 20 20 20 20 20 20 20 20 20 20 19 19 19 19 18 18 18 18 18 17 17 17 17 17 17 17 17 17 17 17 17 16 16 16 16 16
21 21 21 21 21 21 21 20 20 20 20 20 20 20 20 20 20 20 20 20 20 19 19 19 19 19 18 18 18 18 17 17 17 17 17 17 17 17 17 17 17 17 16 16 16 16 16 16 16
21 21 21 21 20 19 20 19 20 19 19 19 19 20 20 20 20 20 20 20 19 19 19 19 19 18 18 18 18 17 17 17 17 17 17 17 17 17 17 17 17 17 16 16 16 16 16 16 16
21 21 21 20 19 19 19 19 18 18 19 18 18 19 20 20 20 21 20 20 20 20 19 19 18 18 18 18 17 17 17 17 17 17 17 17 17 17 17 16 16 16 16 16 16 16 16 16 16
21 20 19 17 17 18 19 19 18 17 18 19 19 19 20 20 20 20 20 20 20 20 19 19 18 18 18 18 17 17 17 17 17 17 17 17 17 17 17 16 16 16 16 16 16 16 16 16 16
20 19 18 19 17 18 18 18 18 18 18 18 18 19 19 20 20 20 20 20 20 20 19 19 18 18 18 18 18 17 17 17 17 17 17 17 17 17 17 16 16 16 16 16 16 16 16 16 16
20 19 18 19 18 17 18 18 18 18 18 19 19 19 19 19 19 20 20 20 20 19 19 19 18 18 18 18 18 17 17 17 17 17 17 17 17 17 17 16 16 16 16 16 16 16 16 16 16
20 18 18 17 17 17 17 17 18 18 18 18 18 18 18 19 19 19 19 19 19 19 19 18 18 18 18 17 17 17 17 17 17 17 17 17 17 16 16 16 16 16 16 16 16 16 16 16 16
19 17 15 16 17 18 18 18 18 18 18 17 17 17 18 18 19 19 19 19 19 19 18 18 18 18 17 17 17 17 17 16 16 16 16 17 16 16 16 16 16 16 16 16 16 16 16 16 15
19 18 15 14 15 16 17 17 18 17 17 17 17 17 18 18 19 19 19 19 19 18 18 18 18 17 17 17 17 17 17 17 16 16 16 16 16 16 16 16 16 16 16 16 16 15 15 15 15
19 18 16 17 16 15 16 17 18 17 16 16 17 17 18 18 18 19 19 19 18 18 18 18 17 17 17 17 17 17 17 16 16 16 16 16 16 16 16 16 16 16 16 16 15 15 15 15 15
Wind_Speed
6 6 3 2 4 5 2 3 1 1 1 1 3 4 5 3 3 2 1 8 9 8 8 11 11 10 9 9 9 9 10 10 9 9 8 8 8 7 7 7 6 6 6 6 6 7 6 7 7
4 3 2 4 5 3 4 3 1 0 2 3 4 4 4 2 2 5 4 7 10 9 9 10 12 11 10 9 9 9 9 9 9 8 8 7 7 6 6 6 6 6 6 6 6 6 6 6 6
3 2 4 5 4 3 3 2 1 0 2 2 3 3 3 2 3 5 5 10 9 8 8 10 12 11 10 9 9 9 9 8 8 7 7 6 6 6 5 5 5 6 6 6 5 6 5 5 5
3 3 5 5 1 4 4 3 2 2 2 3 3 3 2 2 4 6 10 11 10 7 8 9 12 11 10 9 8 8 8 7 7 6 6 6 6 5 5 5 5 5 5 5 5 5 5 4 4
3 4 5 3 2 3 3 3 3 2 1 2 3 3 2 4 6 11 12 11 10 7 6 8 11 10 9 8 8 7 7 6 6 5 5 5 5 5 4 4 4 5 5 5 5 5 4 4 4
4 5 4 1 3 4 3 2 3 3 2 2 3 3 1 3 7 9 10 9 8 7 6 7 10 10 9 8 7 6 5 5 5 5 5 4 5 4 4 4 5 5 4 4 4 4 4 3 3
4 4 3 2 2 3 2 2 3 3 3 3 4 4 1 3 5 8 8 7 6 6 5 5 6 8 8 7 6 5 4 4 4 4 4 4 4 4 4 4 4 4 3 3 3 3 2 2 2
5 5 2 2 3 4 2 1 2 4 3 3 4 6 5 6 8 8 8 7 6 5 4 3 4 4 5 5 6 5 4 3 3 3 3 3 3 3 3 3 3 2 2 2 2 2 1 2 2
4 4 2 5 5 4 2 1 1 2 5 2 2 4 6 13 12 10 7 5 5 5 3 3 3 3 4 4 4 4 4 3 2 2 2 2 2 2 2 2 2 1 1 1 1 1 2 2 1
4 3 7 6 5 4 2 2 3 3 3 1 3 5 12 14 13 12 10 9 8 6 5 3 3 3 3 3 3 2 2 2 1 1 1 1 1 1 2 2 3 2 2 1 1 2 2 3 2
5 6 5 5 5 4 2 2 2 6 4 6 8 12 15 13 12 11 10 9 8 7 6 5 4 3 3 2 3 2 2 1 1 1 1 1 1 2 2 2 3 3 3 2 2 3 3 3 2
3 5 5 4 3 3 4 3 2 4 5 5 10 16 15 14 12 11 10 8 6 6 5 4 4 3 3 2 2 2 1 1 1 1 0 0 0 1 2 1 2 2 2 2 2 2 2 3 2
3 4 3 4 3 3 3 3 2 2 0 6 11 13 13 12 9 7 6 6 5 5 5 4 5 4 3 2 1 2 2 2 2 1 1 1 1 1 1 1 1 2 1 1 1 2 2 2 2
3 3 4 4 2 0 3 1 3 1 4 8 11 10 10 10 9 7 6 6 6 6 5 4 4 4 3 2 1 1 1 1 1 1 2 2 2 1 0 1 1 1 1 1 1 2 2 2 2
1 3 6 3 0 1 4 2 1 2 7 8 9 9 8 7 7 8 8 7 6 5 5 4 5 4 3 3 2 2 2 2 1 1 2 2 2 2 1 0 0 0 1 1 2 2 2 2 2
3 3 3 5 2 2 6 3 3 4 8 7 7 7 7 6 6 6 7 6 6 5 5 5 5 5 4 3 2 2 2 1 1 0 1 1 1 2 1 1 0 0 1 2 2 2 2 1 1
5 1 2 5 2 2 4 4 3 4 7 7 7 7 7 6 5 5 6 7 7 6 6 5 4 5 4 3 2 2 1 1 0 1 0 1 1 1 2 1 1 1 1 1 1 1 1 1 1
3 1 1 3 3 2 1 2 2 3 6 6 6 5 6 6 6 6 6 6 6 6 5 5 4 4 4 3 2 1 1 1 1 0 1 0 0 1 2 1 0 1 1 1 1 1 1 1 1
4 2 3 5 2 1 2 2 3 4 4 4 4 5 5 5 4 5 6 6 6 5 5 5 5 4 3 2 2 1 1 1 1 1 1 1 0 0 2 1 1 1 1 1 1 1 1 1 1
3 2 3 4 1 2 1 1 2 4 6 7 7 6 6 4 3 5 5 6 7 6 6 5 5 4 4 3 2 2 1 1 1 1 1 1 1 1 1 1 1 0 1 0 0 1 1 0 1
4 5 5 4 3 3 2 3 2 1 0 1 3 4 4 6 5 5 5 6 6 6 6 6 5 4 3 3 2 2 2 1 1 1 2 2 2 1 1 2 2 1 1 1 1 1 2 1 0
5 6 6 4 2 2 1 1 4 2 1 3 3 4 5 5 5 5 5 5 6 6 5 5 5 4 4 4 3 3 2 2 2 2 2 2 2 1 1 2 2 2 1 1 2 1 1 2 1
6 2 3 3 4 1 2 2 5 2 3 6 6 6 6 6 6 6 6 6 5 5 5 5 4 4 3 4 4 3 2 2 1 1 2 2 2 2 1 2 2 2 2 2 1 1 1 1 2
4 5 6 6 5 1 2 3 4 3 6 6 6 6 5 4 4 4 4 4 3 3 4 4 4 3 3 3 3 4 3 2 1 1 1 2 2 2 2 2 2 1 2 2 2 2 1 1 1
4 6 4 4 3 4 2 2 6 5 5 6 6 6 4 3 4 3 3 3 3 4 4 4 4 4 3 3 3 3 4 4 3 3 2 2 2 2 2 1 1 1 1 1 2 2 1 1 2
3 8 7 5 5 4 2 3 5 4 3 3 2 3 3 3 4 4 4 4 4 4 4 4 4 3 3 3 3 3 3 3 3 3 2 2 3 3 2 1 1 1 1 1 2 1 1 1 1
5 3 5 7 3 1 4 5 6 2 1 0 1 3 3 3 3 3 3 3 3 3 3 4 4 3 3 3 2 2 2 2 3 2 2 2 2 2 1 1 1 1 1 2 2 2 1 1 1
5 8 6 6 5 2 4 4 4 4 3 1 1 2 3 3 2 2 3 3 3 3 3 3 3 3 2 2 2 2 2 2 2 1 2 2 1 1 1 0 1 1 1 2 2 2 1 2 1
4 5 6 5 5 6 3 6 4 6 5 4 4 3 3 3 3 3 3 3 3 2 3 2 2 1 1 1 2 2 2 1 1 2 2 2 1 1 1 1 1 2 1 2 2 2 2 2 1
4 5 6 5 3 4 4 6 5 4 4 4 3 3 2 2 2 2 2 2 2 2 1 1 1 1 1 1 2 2 2 1 1 1 1 1 1 1 1 1 1 1 2 2 3 3 3 2 2
Wind_Direction
148 135 125 97 57 46 341 298 268 348 5 21 93 106 120 130 159 173 131 138 136 142 154 154 150 144 135 126 122 118 116 116 114 113 113 113 113 110 108 105 106 113 121 124 130 133 130 130 130
137 140 89 64 77 49 302 290 329 243 162 117 78 76 81 67 80 117 132 146 140 144 149 151 150 144 136 129 124 121 119 117 115 115 114 113 111 109 110 107 104 107 115 121 124 129 133 133 133
157 148 86 72 95 170 243 261 208 121 129 95 71 51 92 136 141 157 160 143 134 140 148 155 149 144 137 131 128 125 121 118 117 116 116 113 109 108 110 109 106 104 107 115 123 129 131 134 133
118 57 56 68 81 229 223 238 173 128 33 50 102 64 52 52 154 151 139 139 135 140 149 157 149 146 139 135 131 126 121 117 115 112 112 110 106 104 105 105 109 107 107 111 120 129 130 132 133
67 78 60 35 303 277 245 213 167 146 87 62 101 97 26 13 100 126 137 142 144 147 153 160 152 149 144 138 133 129 124 118 115 111 105 106 104 101 98 96 113 123 116 111 110 106 116 126 132
57 68 79 15 295 286 265 178 137 128 118 106 106 108 43 91 116 135 139 140 144 148 151 156 156 152 150 146 139 133 127 121 115 112 106 101 101 95 86 77 90 108 106 106 103 98 97 110 129
104 97 141 185 262 288 255 151 153 153 147 176 144 121 123 130 135 133 128 127 129 134 139 149 155 158 158 154 147 142 137 130 119 110 106 98 91 92 83 78 71 79 83 91 87 83 83 88 101
127 105 111 204 205 249 237 106 172 159 173 144 139 152 182 170 139 123 115 113 120 127 138 146 148 147 152 158 161 159 155 149 141 122 112 102 87 79 76 73 73 65 56 64 66 60 61 75 81
98 81 197 213 198 232 214 157 220 131 125 144 163 168 158 140 136 128 125 123 137 151 152 154 148 144 147 158 173 165 159 156 148 134 122 97 62 40 38 48 51 50 36 21 25 31 30 49 59
102 151 224 217 200 211 232 209 181 131 139 160 92 98 126 139 147 151 158 164 171 177 180 176 173 160 158 175 160 141 145 141 120 97 85 68 44 10 14 8 15 20 10 348 358 15 30 37 47
157 195 235 245 220 199 198 215 153 145 205 212 176 152 147 151 157 164 171 176 182 183 183 183 182 167 166 170 151 136 144 140 97 60 72 63 26 354 353 357 355 2 5 17 32 34 43 56 63
187 239 229 248 210 185 183 176 152 184 232 198 161 154 156 162 170 174 175 176 174 178 187 183 175 169 174 163 157 151 153 167 193 262 279 146 341 336 337 355 1 13 15 39 57 65 48 54 58
215 265 265 248 256 205 164 167 173 253 11 123 137 147 157 164 167 167 164 159 165 182 186 185 177 175 171 161 184 170 178 191 206 220 252 220 227 292 327 344 13 18 32 54 79 85 65 59 53
241 270 298 301 296 183 129 115 117 266 115 121 135 148 157 161 159 154 156 166 178 185 182 171 164 163 154 165 183 178 181 194 206 230 250 229 211 219 266 331 18 21 41 98 117 109 91 65 59
292 337 339 332 241 161 103 39 233 168 125 128 140 149 149 154 157 167 173 171 174 177 174 168 162 152 155 165 173 160 162 159 172 233 246 223 201 191 184 183 334 345 94 114 104 89 83 71 58
34 43 342 313 16 84 111 232 278 146 137 142 150 154 152 162 177 177 170 166 164 162 165 169 168 160 170 173 166 149 140 146 168 202 274 256 209 189 171 169 239 128 111 110 106 95 87 68 55
31 45 285 315 357 94 124 220 252 158 145 151 159 163 162 167 181 180 175 172 169 168 167 163 159 160 167 154 140 123 117 130 115 92 162 266 234 194 168 188 195 139 116 104 131 104 123 105 52
225 221 283 287 322 51 146 221 223 171 156 166 162 164 165 179 195 182 173 169 165 163 163 162 163 157 146 127 105 81 58 11 30 20 254 242 211 174 151 166 123 116 105 88 111 106 96 110 105
170 185 259 269 274 109 215 226 224 186 168 167 170 182 183 189 184 166 168 163 158 157 160 168 167 163 147 139 144 146 208 275 313 282 279 277 269 136 129 108 71 101 131 182 170 145 119 123 126
174 218 257 290 337 153 189 288 248 194 192 186 189 194 196 183 166 166 164 163 169 175 175 176 178 174 169 172 170 169 167 217 252 294 320 308 279 205 165 132 151 155 145 121 180 165 162 176 125
213 200 219 234 352 34 93 355 331 287 194 164 193 198 199 192 187 185 176 178 175 181 185 186 181 174 168 149 116 91 68 38 3 317 304 293 275 238 188 175 170 180 190 207 226 208 182 194 193
243 223 198 187 121 295 75 258 287 273 265 234 227 218 214 202 191 187 181 181 189 193 184 179 171 169 170 156 152 155 173 204 229 244 259 288 282 255 215 190 182 183 195 208 234 205 201 183 209
211 199 154 155 146 76 19 140 290 344 265 248 233 224 222 204 188 189 191 189 189 184 177 175 163 168 169 167 168 167 190 218 247 279 291 294 299 281 245 196 185 185 204 208 218 207 204 191 187
155 72 59 54 77 61 264 161 275 249 235 240 226 219 221 202 185 184 175 162 168 166 163 163 158 165 162 165 169 176 188 194 201 263 280 290 293 292 285 225 195 198 217 212 210 204 191 188 165
94 94 42 3 14 252 279 175 246 250 243 230 227 221 209 177 169 165 150 155 162 165 167 164 162 168 168 171 183 194 197 195 205 223 233 258 280 277 279 254 208 207 218 200 180 169 180 172 160
173 143 157 189 213 269 328 234 254 261 261 249 228 206 170 165 169 167 166 164 167 171 169 170 168 168 179 182 196 202 200 201 217 219 222 229 241 253 256 226 203 198 189 168 144 144 178 142 160
135 152 159 133 129 95 287 292 304 322 343 12 134 135 160 176 169 166 162 161 161 165 167 168 168 173 192 202 199 195 200 202 212 222 224 233 239 238 237 220 201 194 184 163 148 149 155 116 125
120 137 97 114 143 219 288 278 258 273 261 240 182 177 185 169 156 150 155 152 150 162 162 151 166 186 207 204 203 203 209 223 224 211 218 228 228 211 179 180 178 168 157 155 147 149 157 126 120
86 88 95 103 138 153 221 266 233 229 218 203 212 210 201 170 161 164 164 158 142 134 151 150 158 176 216 233 214 201 211 215 206 225 232 214 197 184 181 199 165 156 159 153 144 159 151 138 118
134 142 139 143 191 163 172 259 285 235 207 188 199 201 193 160 149 139 135 131 120 122 130 129 162 195 223 233 218 219 221 201 199 230 235 191 180 182 184 174 151 154 157 158 161 170 169 166 167
Height
1501 1501 1501 1503 1506 1516 1518 1510 1504 1502 1501 1500 1500 1501 1503 1505 1509 1513 1508 1507 1508 1509 1510 1511 1512 1513 1514 1515 1515 1516 1516 1516 1516 1517 1517 1517 1517 1517 1517 1518 1518 1518 1518 1519 1519 1520 1520 1520 1521
1501 1501 1503 1503 1513 1527 1520 1507 1504 1501 1500 1500 1501 1502 1503 1504 1505 1505 1506 1507 1509 1510 1511 1512 1513 1515 1515 1516 1516 1517 1517 1517 1517 1518 1518 1518 1518 1518 1518 1518 1518 1519 1519 1519 1519 1520 1520 1521 1521
1501 1502 1504 1506 1517 1523 1515 1504 1502 1500 1500 1501 1502 1503 1504 1505 1505 1506 1507 1508 1510 1511 1513 1514 1515 1516 1517 1517 1518 1518 1518 1518 1519 1519 1519 1519 1519 1518 1518 1519 1519 1519 1519 1519 1520 1520 1520 1521 1521
1502 1503 1505 1512 1516 1511 1506 1501 1500 1501 1501 1501 1503 1505 1505 1506 1506 1507 1508 1510 1511 1513 1514 1515 1516 1517 1518 1519 1519 1520 1520 1520 1520 1520 1520 1520 1519 1519 1519 1519 1518 1519 1519 1520 1520 1521 1521 1521 1522
1502 1503 1511 1519 1514 1507 1501 1500 1500 1501 1502 1503 1503 1505 1506 1507 1507 1508 1509 1511 1512 1514 1515 1517 1518 1519 1520 1520 1521 1521 1521 1521 1521 1521 1521 1521 1520 1520 1520 1519 1516 1518 1520 1520 1521 1521 1521 1522 1522
1502 1504 1519 1523 1514 1505 1500 1499 1500 1501 1502 1503 1504 1505 1506 1508 1508 1510 1511 1513 1514 1515 1517 1518 1519 1520 1521 1522 1522 1522 1522 1522 1522 1522 1522 1522 1522 1521 1521 1519 1516 1518 1520 1521 1522 1522 1522 1522 1522
1503 1509 1517 1516 1514 1507 1500 1499 1500 1500 1501 1502 1503 1505 1506 1508 1509 1511 1513 1514 1515 1517 1518 1519 1520 1521 1522 1523 1523 1524 1524 1524 1524 1524 1523 1523 1523 1523 1522 1521 1520 1521 1522 1522 1523 1523 1523 1523 1523
1502 1508 1514 1515 1512 1507 1499 1499 1499 1499 1501 1502 1503 1504 1505 1507 1509 1511 1513 1515 1516 1518 1519 1520 1521 1522 1523 1524 1524 1525 1525 1525 1525 1525 1525 1524 1524 1524 1524 1523 1523 1523 1523 1524 1524 1524 1524 1524 1523
1502 1512 1518 1512 1508 1503 1498 1498 1499 1499 1500 1502 1502 1503 1504 1506 1509 1511 1513 1515 1516 1518 1519 1521 1522 1523 1524 1524 1525 1525 1526 1526 1526 1526 1526 1526 1525 1525 1525 1525 1525 1525 1525 1525 1525 1525 1524 1524 1524
1502 1514 1508 1501 1499 1498 1497 1498 1498 1499 1500 1501 1501 1502 1503 1505 1508 1510 1512 1513 1516 1517 1519 1521 1522 1523 1524 1525 1525 1526 1526 1526 1527 1527 1527 1527 1527 1526 1526 1526 1526 1526 1526 1525 1525 1525 1525 1525 1524
1500 1504 1499 1496 1495 1496 1496 1497 1497 1498 1500 1498 1498 1500 1502 1505 1508 1510 1512 1514 1516 1518 1520 1521 1522 1523 1524 1525 1526 1527 1527 1527 1527 1527 1527 1527 1527 1527 1527 1527 1527 1526 1526 1526 1526 1526 1525 1525 1525
1499 1497 1496 1494 1493 1494 1495 1495 1497 1497 1497 1497 1498 1499 1501 1504 1506 1509 1511 1514 1516 1518 1520 1521 1522 1524 1525 1526 1526 1527 1527 1527 1528 1528 1528 1528 1528 1528 1527 1527 1527 1527 1527 1527 1527 1527 1526 1526 1526
1497 1495 1493 1492 1492 1492 1494 1495 1496 1496 1496 1496 1498 1500 1502 1504 1507 1510 1512 1514 1516 1518 1520 1521 1522 1524 1525 1526 1526 1527 1527 1527 1528 1528 1528 1528 1528 1528 1528 1528 1528 1528 1528 1527 1527 1527 1527 1527 1526
1495 1494 1493 1491 1491 1492 1493 1495 1496 1496 1496 1496 1498 1500 1502 1505 1507 1510 1512 1514 1516 1518 1519 1521 1522 1524 1525 1526 1527 1527 1527 1528 1528 1528 1528 1528 1528 1528 1528 1528 1528 1528 1528 1528 1528 1528 1527 1527 1527
1494 1495 1493 1491 1491 1492 1493 1498 1497 1496 1496 1497 1499 1501 1503 1505 1508 1509 1511 1513 1516 1517 1519 1521 1523 1524 1525 1526 1527 1527 1527 1527 1528 1528 1528 1528 1528 1528 1528 1528 1528 1528 1528 1528 1528 1528 1528 1527 1527
1495 1500 1504 1495 1492 1492 1497 1505 1496 1496 1496 1498 1500 1502 1504 1506 1508 1510 1512 1513 1515 1517 1519 1521 1522 1524 1525 1526 1526 1527 1527 1527 1527 1527 1527 1528 1528 1528 1528 1528 1528 1528 1528 1528 1528 1528 1528 1527 1527
1504 1510 1507 1500 1493 1493 1498 1502 1496 1496 1497 1499 1500 1502 1504 1505 1507 1509 1511 1513 1515 1517 1519 1521 1522 1523 1524 1525 1525 1526 1526 1526 1527 1527 1526 1527 1527 1527 1527 1527 1527 1528 1528 1527 1527 1527 1527 1527 1527
1510 1509 1507 1505 1497 1496 1499 1500 1496 1496 1497 1498 1500 1502 1503 1504 1506 1508 1510 1513 1515 1517 1519 1520 1522 1523 1523 1524 1524 1525 1525 1526 1526 1526 1526 1526 1526 1526 1527 1527 1527 1527 1527 1527 1527 1527 1527 1527 1527
1501 1505 1508 1503 1496 1498 1500 1500 1497 1496 1497 1499 1501 1502 1502 1503 1506 1508 1510 1512 1514 1516 1518 1519 1520 1521 1522 1522 1523 1523 1524 1524 1525 1525 1525 1525 1525 1526 1526 1526 1526 1526 1526 1526 1526 1526 1526 1526 1526
1500 1506 1507 1501 1495 1498 1501 1501 1497 1496 1496 1497 1498 1500 1501 1502 1504 1506 1508 1510 1513 1514 1516 1518 1519 1520 1521 1521 1522 1523 1523 1523 1524 1524 1524 1524 1524 1524 1524 1525 1525 1525 1525 1525 1525 1525 1525 1525 1525
1500 1504 1503 1503 1498 1498 1501 1506 1501 1498 1497 1498 1500 1500 1501 1502 1503 1505 1507 1509 1511 1513 1514 1516 1518 1519 1520 1521 1522 1522 1523 1523 1523 1523 1522 1523 1523 1523 1523 1523 1523 1524 1524 1524 1524 1524 1524 1524 1524
1502 1494 1496 1499 1507 1513 1507 1520 1507 1501 1500 1498 1499 1499 1500 1501 1503 1504 1506 1508 1510 1512 1514 1516 1517 1518 1519 1520 1521 1521 1521 1521 1521 1521 1521 1521 1521 1522 1522 1522 1522 1522 1522 1523 1523 1523 1523 1523 1523
1492 1489 1494 1498 1506 1514 1512 1519 1514 1503 1503 1499 1497 1496 1497 1499 1501 1503 1504 1506 1509 1511 1513 1515 1516 1517 1518 1519 1519 1520 1520 1520 1521 1521 1521 1520 1520 1521 1521 1521 1521 1521 1521 1521 1521 1521 1522 1521 1521
1486 1492 1499 1507 1513 1524 1517 1520 1518 1508 1501 1496 1494 1494 1495 1497 1499 1501 1503 1505 1507 1509 1511 1513 1514 1515 1516 1517 1518 1519 1519 1519 1519 1519 1519 1520 1520 1520 1520 1520 1520 1520 1520 1520 1520 1520 1520 1520 1520
1489 1504 1521 1523 1531 1528 1516 1517 1515 1499 1494 1493 1491 1492 1494 1496 1498 1500 1502 1504 1506 1508 1509 1511 1512 1513 1514 1515 1516 1517 1517 1518 1518 1518 1518 1518 1518 1518 1518 1518 1519 1519 1519 1519 1519 1519 1518 1518 1519
1491 1499 1520 1529 1532 1528 1517 1518 1506 1494 1492 1491 1491 1491 1493 1495 1497 1499 1500 1502 1504 1506 1508 1509 1510 1511 1512 1513 1514 1514 1515 1515 1516 1517 1517 1517 1517 1517 1517 1517 1517 1517 1518 1518 1517 1517 1517 1517 1517
1492 1500 1500 1517 1523 1529 1523 1513 1500 1492 1491 1490 1490 1491 1493 1494 1496 1498 1500 1502 1503 1505 1506 1508 1509 1509 1511 1511 1512 1512 1512 1512 1513 1514 1515 1515 1515 1516 1516 1516 1516 1516 1516 1516 1516 1516 1517 1516 1516
1486 1495 1507 1517 1528 1532 1523 1517 1510 1497 1493 1491 1491 1491 1491 1494 1496 1497 1499 1501 1502 1504 1505 1506 1508 1508 1509 1510 1510 1510 1511 1511 1512 1512 1513 1513 1513 1514 1514 1514 1514 1514 1514 1515 1515 1515 1516 1515 1515
1491 1497 1507 1518 1519 1529 1532 1520 1495 1493 1491 1491 1490 1491 1491 1493 1494 1496 1498 1499 1502 1503 1505 1506 1506 1506 1507 1508 1508 1509 1509 1509 1509 1510 1510 1510 1511 1511 1512 1512 1512 1512 1513 1513 1514 1514 1514 1514 1514
1485 1493 1502 1512 1519 1523 1526 1518 1489 1488 1488 1489 1490 1491 1492 1493 1494 1495 1497 1499 1500 1502 1503 1504 1505 1505 1506 1506 1506 1507 1507 1507 1507 1507 1508 1508 1509 1509 1510 1510 1511 1511 1511 1512 1512 1513 1513 1513 1513